Satellite: NOAA-11 Catalog number: 19531 Epoch time: 11306.87228774 Element set: 0686 Inclination: 098.7475 deg RA of node: 031.6763 deg Eccentricity: 0.0011315 Arg of perigee: 148.8131 deg Mean anomaly: 211.3728 deg Mean motion: 14.14933323 rev/day Decay rate: 1.47e-06 rev/day^2 Epoch rev: 19236 Checksum: 300
Satellite: NOAA-12 Catalog number: 21263 Epoch time: 11306.97753397 Element set: 0201 Inclination: 098.7455 deg RA of node: 324.5324 deg Eccentricity: 0.0014413 Arg of perigee: 138.6775 deg Mean anomaly: 221.5496 deg Mean motion: 14.25448983 rev/day Decay rate: -2.0e-07 rev/day^2 Epoch rev: 06418 Checksum: 302
Satellite: MET-3/5 Catalog number: 21655 Epoch time: 11306.62441362 Element set: 0250 Inclination: 082.5559 deg RA of node: 312.9631 deg Eccentricity: 0.0013679 Arg of perigee: 165.6196 deg Mean anomaly: 194.5338 deg Mean motion: 13.17030023 rev/day Decay rate: 5.1e-07 rev/day^2 Epoch rev: 97194 Checksum: 292
Satellite: MET-2/21 Catalog number: 22782 Epoch time: 11306.87994409 Element set: 0247 Inclination: 082.5488 deg RA of node: 212.8377 deg Eccentricity: 0.0024064 Arg of perigee: 071.0097 deg Mean anomaly: 289.3663 deg Mean motion: 13.83667896 rev/day Decay rate: 8.6e-07 rev/day^2 Epoch rev: 91773 Checksum: 351
Satellite: OKEAN-4 Catalog number: 23317 Epoch time: 11306.94163698 Element set: 0736 Inclination: 082.5392 deg RA of node: 243.5511 deg Eccentricity: 0.0022964 Arg of perigee: 025.8427 deg Mean anomaly: 334.3929 deg Mean motion: 14.83281799 rev/day Decay rate: 2.001e-05 rev/day^2 Epoch rev: 92111 Checksum: 305
Satellite: NOAA-14 Catalog number: 23455 Epoch time: 11306.95582935 Element set: 0683 Inclination: 098.8451 deg RA of node: 028.1566 deg Eccentricity: 0.0008648 Arg of perigee: 244.5973 deg Mean anomaly: 115.4301 deg Mean motion: 14.13844926 rev/day Decay rate: 8.5e-07 rev/day^2 Epoch rev: 86868 Checksum: 338
Satellite: NOAA-15 Catalog number: 25338 Epoch time: 11306.91578887 Element set: 0005 Inclination: 098.6699 deg RA of node: 291.2609 deg Eccentricity: 0.0011489 Arg of perigee: 052.3547 deg Mean anomaly: 307.8681 deg Mean motion: 14.24974274 rev/day Decay rate: 3.39e-06 rev/day^2 Epoch rev: 70048 Checksum: 342
Satellite: RESURS Catalog number: 25394 Epoch time: 11306.92759558 Element set: 0944 Inclination: 098.3061 deg RA of node: 302.3548 deg Eccentricity: 0.0001340 Arg of perigee: 146.5988 deg Mean anomaly: 213.5277 deg Mean motion: 14.24249707 rev/day Decay rate: 9.0e-07 rev/day^2 Epoch rev: 69205 Checksum: 310
Satellite: FENGYUN1 Catalog number: 25730 Epoch time: 11306.95093655 Element set: 0472 Inclination: 098.8267 deg RA of node: 265.1895 deg Eccentricity: 0.0023520 Arg of perigee: 291.8652 deg Mean anomaly: 068.0010 deg Mean motion: 14.08991799 rev/day Decay rate: 2.200e-05 rev/day^2 Epoch rev: 64260 Checksum: 307
Satellite: OKEAN-0 Catalog number: 25860 Epoch time: 11306.93200012 Element set: 0476 Inclination: 097.9036 deg RA of node: 269.7099 deg Eccentricity: 0.0000575 Arg of perigee: 055.3728 deg Mean anomaly: 304.7535 deg Mean motion: 14.73911455 rev/day Decay rate: 8.49e-06 rev/day^2 Epoch rev: 66109 Checksum: 309
Satellite: NOAA-16 Catalog number: 26536 Epoch time: 11306.90088857 Element set: 0487 Inclination: 099.1267 deg RA of node: 340.1721 deg Eccentricity: 0.0010694 Arg of perigee: 007.3772 deg Mean anomaly: 352.7550 deg Mean motion: 14.12660782 rev/day Decay rate: -6.3e-07 rev/day^2 Epoch rev: 57294 Checksum: 314
Satellite: NOAA-17 Catalog number: 27453 Epoch time: 11306.84924629 Element set: 0472 Inclination: 098.3645 deg RA of node: 340.0895 deg Eccentricity: 0.0012704 Arg of perigee: 102.2938 deg Mean anomaly: 257.9655 deg Mean motion: 14.24337846 rev/day Decay rate: 3.10e-06 rev/day^2 Epoch rev: 48639 Checksum: 325
Satellite: NOAA-18 Catalog number: 28654 Epoch time: 11306.82302379 Element set: 0949 Inclination: 099.0155 deg RA of node: 258.4243 deg Eccentricity: 0.0015213 Arg of perigee: 074.8061 deg Mean anomaly: 285.4796 deg Mean motion: 14.11539543 rev/day Decay rate: 8.5e-07 rev/day^2 Epoch rev: 33248 Checksum: 317
Satellite: NOAA-19 Catalog number: 33591 Epoch time: 11306.85093271 Element set: 0141 Inclination: 098.8406 deg RA of node: 244.7490 deg Eccentricity: 0.0013563 Arg of perigee: 306.9239 deg Mean anomaly: 053.0697 deg Mean motion: 14.11229789 rev/day Decay rate: 2.6e-07 rev/day^2 Epoch rev: 14094 Checksum: 309
/EX SB KEPS @ AMSAT $ORB11307.M Orbital Elements 11307.MISC
HR AMSAT ORBITAL ELEMENTS FOR MANNED AND MISCELLANEOUS SATELLITES FROM WA5QGD FORT WORTH,TX November 3, 2011 Send Subscribe/unsubscribe to KEPS at http://www.amsat.org/mailman/listinfo/keps BID: ORB11307.M TO ALL RADIO AMATEURS BT
Satellite: HUBBLE Catalog number: 20580 Epoch time: 11306.10856795 Element set: 877 Inclination: 028.4695 deg RA of node: 195.3338 deg Eccentricity: 0.0003420 Arg of perigee: 146.9247 deg Mean anomaly: 213.1679 deg Mean motion: 15.01722135 rev/day Decay rate: 2.440e-05 rev/day^2 Epoch rev: 98040 Checksum: 292
Satellite: ISS Catalog number: 25544 Epoch time: 11307.39278837 Element set: 367 Inclination: 051.6412 deg RA of node: 180.0751 deg Eccentricity: 0.0021741 Arg of perigee: 016.7654 deg Mean anomaly: 139.2415 deg Mean motion: 15.59531792 rev/day Decay rate: 2.8613e-04 rev/day^2 Epoch rev: 74264 Checksum: 302
Satellite: CO-58 Catalog number: 28895 Epoch time: 11306.62554495 Element set: 0015 Inclination: 097.9423 deg RA of node: 177.5039 deg Eccentricity: 0.0018391 Arg of perigee: 143.5635 deg Mean anomaly: 216.6842 deg Mean motion: 14.60260018 rev/day Decay rate: 8.88e-06 rev/day^2 Epoch rev: 32044 Checksum: 321
Satellite: FALCON Catalog number: 30776 Epoch time: 11306.96415415 Element set: 0211 Inclination: 035.4323 deg RA of node: 222.7922 deg Eccentricity: 0.0002721 Arg of perigee: 242.8913 deg Mean anomaly: 117.1525 deg Mean motion: 15.05472957 rev/day Decay rate: 5.767e-05 rev/day^2 Epoch rev: 25596 Checksum: 287
Satellite: MAST Catalog number: 31126 Epoch time: 11306.58335949 Element set: 0302 Inclination: 097.8870 deg RA of node: 325.9323 deg Eccentricity: 0.0095356 Arg of perigee: 099.6716 deg Mean anomaly: 261.5263 deg Mean motion: 14.53863401 rev/day Decay rate: 7.15e-06 rev/day^2 Epoch rev: 24119 Checksum: 306
Satellite: CAPE1 Catalog number: 31130 Epoch time: 11306.49066991 Element set: 310 Inclination: 097.8918 deg RA of node: 322.4237 deg Eccentricity: 0.0103134 Arg of perigee: 111.5257 deg Mean anomaly: 249.6989 deg Mean motion: 14.52541861 rev/day Decay rate: 8.91e-06 rev/day^2 Epoch rev: 24071 Checksum: 292
Satellite: COMPASS Catalog number: 32787 Epoch time: 11306.43184729 Element set: 0135 Inclination: 097.8335 deg RA of node: 007.5804 deg Eccentricity: 0.0016780 Arg of perigee: 085.6294 deg Mean anomaly: 274.6859 deg Mean motion: 14.82879499 rev/day Decay rate: 3.121e-05 rev/day^2 Epoch rev: 19004 Checksum: 331
Satellite: AAUSAT2 Catalog number: 32788 Epoch time: 11306.84938129 Element set: 0127 Inclination: 097.8333 deg RA of node: 008.2600 deg Eccentricity: 0.0016551 Arg of perigee: 084.8089 deg Mean anomaly: 275.5072 deg Mean motion: 14.83103280 rev/day Decay rate: 3.234e-05 rev/day^2 Epoch rev: 19012 Checksum: 290
Satellite: DO-64 Catalog number: 32789 Epoch time: 11306.73860289 Element set: 0141 Inclination: 097.8434 deg RA of node: 009.4470 deg Eccentricity: 0.0016181 Arg of perigee: 082.6999 deg Mean anomaly: 277.6146 deg Mean motion: 14.83852481 rev/day Decay rate: 5.850e-05 rev/day^2 Epoch rev: 19012 Checksum: 335
Satellite: CO-66 Catalog number: 32791 Epoch time: 11306.68229045 Element set: 0130 Inclination: 097.8338 deg RA of node: 007.7157 deg Eccentricity: 0.0017206 Arg of perigee: 084.3623 deg Mean anomaly: 275.9574 deg Mean motion: 14.82496617 rev/day Decay rate: 2.969e-05 rev/day^2 Epoch rev: 19002 Checksum: 326
Satellite: RS-30 Catalog number: 32953 Epoch time: 11307.39315240 Element set: 223 Inclination: 082.5000 deg RA of node: 076.1684 deg Eccentricity: 0.0019724 Arg of perigee: 084.1626 deg Mean anomaly: 276.1710 deg Mean motion: 12.43016629 rev/day Decay rate: 1.0e-07 rev/day^2 Epoch rev: 15638 Checksum: 261
Satellite: TACSAT-3 Catalog number: 35001 Epoch time: 11307.39507707 Element set: 748 Inclination: 040.4531 deg RA of node: 043.9542 deg Eccentricity: 0.0014992 Arg of perigee: 164.4926 deg Mean anomaly: 195.6373 deg Mean motion: 15.56935393 rev/day Decay rate: 6.9152e-04 rev/day^2 Epoch rev: 13871 Checksum: 316
Satellite: PHARMSAT Catalog number: 35002 Epoch time: 11307.38382810 Element set: 694 Inclination: 040.4693 deg RA of node: 043.2023 deg Eccentricity: 0.0016652 Arg of perigee: 177.6628 deg Mean anomaly: 182.4320 deg Mean motion: 15.54734080 rev/day Decay rate: 5.0666e-04 rev/day^2 Epoch rev: 13872 Checksum: 279
Satellite: HAWKSAT1 Catalog number: 35003 Epoch time: 11276.79285837 Element set: 811 Inclination: 040.4398 deg RA of node: 174.3672 deg Eccentricity: 0.0011414 Arg of perigee: 274.3918 deg Mean anomaly: 085.3844 deg Mean motion: 16.13812532 rev/day Decay rate: 2.274821e-02 rev/day^2 Epoch rev: 13457 Checksum: 306
Satellite: CP6 Catalog number: 35004 Epoch time: 11247.64656856 Element set: 784 Inclination: 040.4403 deg RA of node: 342.9642 deg Eccentricity: 0.0002956 Arg of perigee: 038.0069 deg Mean anomaly: 322.2231 deg Mean motion: 16.41039951 rev/day Decay rate: 1.6152067e-01 rev/day^2 Epoch rev: 13013 Checksum: 285
Satellite: METEOR-M Catalog number: 35865 Epoch time: 11307.20474098 Element set: 864 Inclination: 098.6887 deg RA of node: 000.4064 deg Eccentricity: 0.0002800 Arg of perigee: 006.9218 deg Mean anomaly: 353.1993 deg Mean motion: 14.21844423 rev/day Decay rate: 1.9e-07 rev/day^2 Epoch rev: 11034 Checksum: 283
